Year,Month,Day,Hour,Minute,Value (Times are PST for temperature in C)
2014,06,01,00,00,14.50
2014,06,01,00,01,14.50
2014,06,01,00,02,14.50
2014,06,01,00,03,14.40
2014,06,01,00,04,14.40
2014,06,01,00,05,14.40
2014,06,01,00,06,14.40
2014,06,01,00,07,14.30
2014,06,01,00,08,14.30
2014,06,01,00,09,14.30
2014,06,01,00,10,14.30
2014,06,01,00,11,14.20
2014,06,01,00,12,14.20
2014,06,01,00,13,14.20
2014,06,01,00,14,14.20
2014,06,01,00,15,14.20
2014,06,01,00,16,14.20
2014,06,01,00,17,14.20
2014,06,01,00,18,14.20
2014,06,01,00,19,14.20
2014,06,01,00,20,14.20
2014,06,01,00,21,14.20
2014,06,01,00,22,14.20
2014,06,01,00,23,14.10
2014,06,01,00,24,14.10
2014,06,01,00,25,14.10
2014,06,01,00,26,14.10
2014,06,01,00,27,14.00
2014,06,01,00,28,14.00
2014,06,01,00,29,14.00
2014,06,01,00,30,14.00
2014,06,01,00,31,13.90
2014,06,01,00,32,13.90
2014,06,01,00,33,13.90
2014,06,01,00,34,13.90
2014,06,01,00,35,13.80
2014,06,01,00,36,13.80
2014,06,01,00,37,13.80
2014,06,01,00,38,13.80
2014,06,01,00,39,13.80
2014,06,01,00,40,13.80
2014,06,01,00,41,13.80
2014,06,01,00,42,13.70
2014,06,01,00,43,13.70
2014,06,01,00,44,13.70
2014,06,01,00,45,13.70
2014,06,01,00,46,13.70
2014,06,01,00,47,13.70
2014,06,01,00,48,13.70
2014,06,01,00,49,13.70
2014,06,01,00,50,13.70
2014,06,01,00,51,13.70
2014,06,01,00,52,13.70
2014,06,01,00,53,13.70
2014,06,01,00,54,13.70
2014,06,01,00,55,13.70
2014,06,01,00,56,13.70
2014,06,01,00,57,13.60
2014,06,01,00,58,13.60
2014,06,01,00,59,13.60
2014,06,01,01,00,13.60
2014,06,01,01,01,13.60
2014,06,01,01,02,13.60
2014,06,01,01,03,13.60
2014,06,01,01,04,13.60
2014,06,01,01,05,13.60
2014,06,01,01,06,13.50
2014,06,01,01,07,13.50
2014,06,01,01,08,13.50
2014,06,01,01,09,13.50
2014,06,01,01,10,13.50
2014,06,01,01,11,13.50
2014,06,01,01,12,13.50
2014,06,01,01,13,13.50
2014,06,01,01,14,13.40
2014,06,01,01,15,13.40
2014,06,01,01,16,13.40
2014,06,01,01,17,13.40
2014,06,01,01,18,13.30
2014,06,01,01,19,13.30
2014,06,01,01,20,13.30
2014,06,01,01,21,13.30
2014,06,01,01,22,13.30
2014,06,01,01,23,13.30
2014,06,01,01,24,13.30
2014,06,01,01,25,13.30
2014,06,01,01,26,13.30
2014,06,01,01,27,13.30
2014,06,01,01,28,13.30
2014,06,01,01,29,13.30
2014,06,01,01,30,13.30
2014,06,01,01,31,13.20
2014,06,01,01,32,13.20
2014,06,01,01,33,13.20
2014,06,01,01,34,13.20
2014,06,01,01,35,13.20
2014,06,01,01,36,13.20
2014,06,01,01,37,13.20
2014,06,01,01,38,13.10
2014,06,01,01,39,13.10
2014,06,01,01,40,13.10
2014,06,01,01,41,13.10
2014,06,01,01,42,13.10
2014,06,01,01,43,13.10
2014,06,01,01,44,13.10
2014,06,01,01,45,13.10
2014,06,01,01,46,13.00
2014,06,01,01,47,13.00
2014,06,01,01,48,13.00
2014,06,01,01,49,13.00
2014,06,01,01,50,13.00
2014,06,01,01,51,13.00
2014,06,01,01,52,13.00
2014,06,01,01,53,12.90
2014,06,01,01,54,12.90
2014,06,01,01,55,12.90
2014,06,01,01,56,12.90
2014,06,01,01,57,12.90
2014,06,01,01,58,12.90
2014,06,01,01,59,12.90
2014,06,01,02,00,12.80
2014,06,01,02,01,12.80
2014,06,01,02,02,12.80
2014,06,01,02,03,12.80
2014,06,01,02,04,12.80
2014,06,01,02,05,12.80
2014,06,01,02,06,12.80
2014,06,01,02,07,12.80
2014,06,01,02,08,12.80
2014,06,01,02,09,12.80
2014,06,01,02,10,12.80
2014,06,01,02,11,12.80
2014,06,01,02,12,12.80
2014,06,01,02,13,12.80
2014,06,01,02,14,12.80
2014,06,01,02,15,12.80
2014,06,01,02,16,12.80
2014,06,01,02,17,12.70
2014,06,01,02,18,12.70
2014,06,01,02,19,12.70
2014,06,01,02,20,12.70
2014,06,01,02,21,12.70
2014,06,01,02,22,12.70
2014,06,01,02,23,12.70
2014,06,01,02,24,12.70
2014,06,01,02,25,12.70
2014,06,01,02,26,12.70
2014,06,01,02,27,12.70
2014,06,01,02,28,12.60
2014,06,01,02,29,12.60
2014,06,01,02,30,12.60
2014,06,01,02,31,12.60
2014,06,01,02,32,12.60
2014,06,01,02,33,12.60
2014,06,01,02,34,12.60
2014,06,01,02,35,12.60
2014,06,01,02,36,12.60
2014,06,01,02,37,12.60
2014,06,01,02,38,12.60
2014,06,01,02,39,12.60
2014,06,01,02,40,12.60
2014,06,01,02,41,12.50
2014,06,01,02,42,12.50
2014,06,01,02,43,12.50
2014,06,01,02,44,12.50
2014,06,01,02,45,12.50
2014,06,01,02,46,12.50
2014,06,01,02,47,12.50
2014,06,01,02,48,12.50
2014,06,01,02,49,12.40
2014,06,01,02,50,12.40
2014,06,01,02,51,12.40
2014,06,01,02,52,12.40
2014,06,01,02,53,12.40
2014,06,01,02,54,12.40
2014,06,01,02,55,12.40
2014,06,01,02,56,12.40
2014,06,01,02,57,12.30
2014,06,01,02,58,12.30
2014,06,01,02,59,12.30
2014,06,01,03,00,12.30
2014,06,01,03,01,12.30
2014,06,01,03,02,12.30
2014,06,01,03,03,12.30
2014,06,01,03,04,12.30
2014,06,01,03,05,12.30
2014,06,01,03,06,12.30
2014,06,01,03,07,12.30
2014,06,01,03,08,12.30
2014,06,01,03,09,12.30
2014,06,01,03,10,12.30
2014,06,01,03,11,12.30
2014,06,01,03,12,12.30
2014,06,01,03,13,12.30
2014,06,01,03,14,12.30
2014,06,01,03,15,12.30
2014,06,01,03,16,12.30
2014,06,01,03,17,12.30
2014,06,01,03,18,12.30
2014,06,01,03,19,12.30
2014,06,01,03,20,12.30
2014,06,01,03,21,12.20
2014,06,01,03,22,12.20
2014,06,01,03,23,12.20
2014,06,01,03,24,12.20
2014,06,01,03,25,12.20
2014,06,01,03,26,12.20
2014,06,01,03,27,12.20
2014,06,01,03,28,12.20
2014,06,01,03,29,12.20
2014,06,01,03,30,12.20
2014,06,01,03,31,12.20
2014,06,01,03,32,12.20
2014,06,01,03,33,12.20
2014,06,01,03,34,12.10
2014,06,01,03,35,12.10
2014,06,01,03,36,12.10
2014,06,01,03,37,12.10
2014,06,01,03,38,12.10
2014,06,01,03,39,12.10
2014,06,01,03,40,12.00
2014,06,01,03,41,12.00
2014,06,01,03,42,12.00
2014,06,01,03,43,12.00
2014,06,01,03,44,12.00
2014,06,01,03,45,12.00
2014,06,01,03,46,11.90
2014,06,01,03,47,11.90
2014,06,01,03,48,11.90
2014,06,01,03,49,11.90
2014,06,01,03,50,11.90
2014,06,01,03,51,11.90
2014,06,01,03,52,11.90
2014,06,01,03,53,11.80
2014,06,01,03,54,11.80
2014,06,01,03,55,11.80
2014,06,01,03,56,11.80
2014,06,01,03,57,11.80
2014,06,01,03,58,11.80
2014,06,01,03,59,11.80
2014,06,01,04,00,11.80
2014,06,01,04,01,11.80
2014,06,01,04,02,11.80
2014,06,01,04,03,11.80
2014,06,01,04,04,11.80
2014,06,01,04,05,11.80
2014,06,01,04,06,11.80
2014,06,01,04,07,11.70
2014,06,01,04,08,11.70
2014,06,01,04,09,11.70
2014,06,01,04,10,11.70
2014,06,01,04,11,11.60
2014,06,01,04,12,11.60
2014,06,01,04,13,11.60
2014,06,01,04,14,11.60
2014,06,01,04,15,11.60
2014,06,01,04,16,11.60
2014,06,01,04,17,11.60
2014,06,01,04,18,11.60
2014,06,01,04,19,11.60
2014,06,01,04,20,11.60
2014,06,01,04,21,11.40
2014,06,01,04,22,11.40
2014,06,01,04,23,11.40
2014,06,01,04,24,11.40
2014,06,01,04,25,11.40
2014,06,01,04,26,11.30
2014,06,01,04,27,11.30
2014,06,01,04,28,11.20
2014,06,01,04,29,11.20
2014,06,01,04,30,11.20
2014,06,01,04,31,11.20
2014,06,01,04,32,11.20
2014,06,01,04,33,11.10
2014,06,01,04,34,11.10
2014,06,01,04,35,11.10
2014,06,01,04,36,11.10
2014,06,01,04,37,11.10
2014,06,01,04,38,11.10
2014,06,01,04,39,11.10
2014,06,01,04,40,11.10
2014,06,01,04,41,11.10
2014,06,01,04,42,11.10
2014,06,01,04,43,11.10
2014,06,01,04,44,10.90
2014,06,01,04,45,10.90
2014,06,01,04,46,10.90
2014,06,01,04,47,10.90
2014,06,01,04,48,10.90
2014,06,01,04,49,10.90
2014,06,01,04,50,10.90
2014,06,01,04,51,10.80
2014,06,01,04,52,10.80
2014,06,01,04,53,10.80
2014,06,01,04,54,10.70
2014,06,01,04,55,10.70
2014,06,01,04,56,10.80
2014,06,01,04,57,10.80
2014,06,01,04,58,10.80
2014,06,01,04,59,10.80
2014,06,01,05,00,10.80
2014,06,01,05,01,10.80
2014,06,01,05,02,10.80
2014,06,01,05,03,10.80
2014,06,01,05,04,10.80
2014,06,01,05,05,10.80
2014,06,01,05,06,10.80
2014,06,01,05,07,10.70
2014,06,01,05,08,10.70
2014,06,01,05,09,10.70
2014,06,01,05,10,10.70
2014,06,01,05,11,10.60
2014,06,01,05,12,10.60
2014,06,01,05,13,10.60
2014,06,01,05,14,10.60
2014,06,01,05,15,10.60
2014,06,01,05,16,10.60
2014,06,01,05,17,10.60
2014,06,01,05,18,10.60
2014,06,01,05,19,10.60
2014,06,01,05,20,10.60
2014,06,01,05,21,10.60
2014,06,01,05,22,10.60
2014,06,01,05,23,10.60
2014,06,01,05,24,10.60
2014,06,01,05,25,10.60
2014,06,01,05,26,10.60
2014,06,01,05,27,10.60
2014,06,01,05,28,10.60
2014,06,01,05,29,10.40
2014,06,01,05,30,10.40
2014,06,01,05,31,10.40
2014,06,01,05,32,10.40
2014,06,01,05,33,10.40
2014,06,01,05,34,10.40
2014,06,01,05,35,10.40
2014,06,01,05,36,10.30
2014,06,01,05,37,10.30
2014,06,01,05,38,10.30
2014,06,01,05,39,10.30
2014,06,01,05,40,10.20
2014,06,01,05,41,10.20
2014,06,01,05,42,10.20
2014,06,01,05,43,10.20
2014,06,01,05,44,10.20
2014,06,01,05,45,10.10
2014,06,01,05,46,10.10
2014,06,01,05,47,10.10
2014,06,01,05,48,10.10
2014,06,01,05,49,10.10
2014,06,01,05,50,10.10
2014,06,01,05,51,10.10
2014,06,01,05,52,10.10
2014,06,01,05,53,10.10
2014,06,01,05,54,10.10
2014,06,01,05,55,10.20
2014,06,01,05,56,10.20
2014,06,01,05,57,10.20
2014,06,01,05,58,10.20
2014,06,01,05,59,10.20
2014,06,01,06,00,10.20
2014,06,01,06,01,10.20
2014,06,01,06,02,10.20
2014,06,01,06,03,10.30
2014,06,01,06,04,10.30
2014,06,01,06,05,10.30
2014,06,01,06,06,10.30
2014,06,01,06,07,10.40
2014,06,01,06,08,10.40
2014,06,01,06,09,10.40
2014,06,01,06,10,10.40
2014,06,01,06,11,10.40
2014,06,01,06,12,10.40
2014,06,01,06,13,10.40
2014,06,01,06,14,10.60
2014,06,01,06,15,10.60
2014,06,01,06,16,10.60
2014,06,01,06,17,10.60
2014,06,01,06,18,10.60
2014,06,01,06,19,10.60
2014,06,01,06,20,10.60
2014,06,01,06,21,10.70
2014,06,01,06,22,10.70
2014,06,01,06,23,10.70
2014,06,01,06,24,10.80
2014,06,01,06,25,10.80
2014,06,01,06,26,10.80
2014,06,01,06,27,10.90
2014,06,01,06,28,10.90
2014,06,01,06,29,10.90
2014,06,01,06,30,10.90
2014,06,01,06,31,10.90
2014,06,01,06,32,11.10
2014,06,01,06,33,11.10
2014,06,01,06,34,11.10
2014,06,01,06,35,11.20
2014,06,01,06,36,11.20
2014,06,01,06,37,11.30
2014,06,01,06,38,11.30
2014,06,01,06,39,11.30
2014,06,01,06,40,11.30
2014,06,01,06,41,11.30
2014,06,01,06,42,11.30
2014,06,01,06,43,11.30
2014,06,01,06,44,11.30
2014,06,01,06,45,11.30
2014,06,01,06,46,11.30
2014,06,01,06,47,11.30
2014,06,01,06,48,11.40
2014,06,01,06,49,11.40
2014,06,01,06,50,11.40
2014,06,01,06,51,11.40
2014,06,01,06,52,11.60
2014,06,01,06,53,11.60
2014,06,01,06,54,11.60
2014,06,01,06,55,11.60
2014,06,01,06,56,11.70
2014,06,01,06,57,11.70
2014,06,01,06,58,11.70
2014,06,01,06,59,11.70
2014,06,01,07,00,11.70
2014,06,01,07,01,11.80
2014,06,01,07,02,11.80
2014,06,01,07,03,11.80
2014,06,01,07,04,11.80
2014,06,01,07,05,11.90
2014,06,01,07,06,12.00
2014,06,01,07,07,12.10
2014,06,01,07,08,12.20
2014,06,01,07,09,12.30
2014,06,01,07,10,12.40
2014,06,01,07,11,12.50
2014,06,01,07,12,12.70
2014,06,01,07,13,12.80
2014,06,01,07,14,12.80
2014,06,01,07,15,12.90
2014,06,01,07,16,13.10
2014,06,01,07,17,13.20
2014,06,01,07,18,13.20
2014,06,01,07,19,13.30
2014,06,01,07,20,13.30
2014,06,01,07,21,13.30
2014,06,01,07,22,13.30
2014,06,01,07,23,13.30
2014,06,01,07,24,13.30
2014,06,01,07,25,13.30
2014,06,01,07,26,13.20
2014,06,01,07,27,13.20
2014,06,01,07,28,13.10
2014,06,01,07,29,13.00
2014,06,01,07,30,12.90
2014,06,01,07,31,12.90
2014,06,01,07,32,12.90
2014,06,01,07,33,12.90
2014,06,01,07,34,12.90
2014,06,01,07,35,12.90
2014,06,01,07,36,13.00
2014,06,01,07,37,12.90
2014,06,01,07,38,12.90
2014,06,01,07,39,12.90
2014,06,01,07,40,13.00
2014,06,01,07,41,13.00
2014,06,01,07,42,12.90
2014,06,01,07,43,13.00
2014,06,01,07,44,12.90
2014,06,01,07,45,12.90
2014,06,01,07,46,12.90
2014,06,01,07,47,12.90
2014,06,01,07,48,13.00
2014,06,01,07,49,13.00
2014,06,01,07,50,13.00
2014,06,01,07,51,13.00
2014,06,01,07,52,13.00
2014,06,01,07,53,13.10
2014,06,01,07,54,13.10
2014,06,01,07,55,13.10
2014,06,01,07,56,13.10
2014,06,01,07,57,13.10
2014,06,01,07,58,13.20
2014,06,01,07,59,13.20
2014,06,01,08,00,13.20
2014,06,01,08,01,13.20
2014,06,01,08,02,13.30
2014,06,01,08,03,13.30
2014,06,01,08,04,13.30
2014,06,01,08,05,13.40
2014,06,01,08,06,13.40
2014,06,01,08,07,13.60
2014,06,01,08,08,13.70
2014,06,01,08,09,13.70
2014,06,01,08,10,13.80
2014,06,01,08,11,14.00
2014,06,01,08,12,14.10
2014,06,01,08,13,14.20
2014,06,01,08,14,14.20
2014,06,01,08,15,14.20
2014,06,01,08,16,14.30
2014,06,01,08,17,14.40
2014,06,01,08,18,14.50
2014,06,01,08,19,14.50
2014,06,01,08,20,14.60
2014,06,01,08,21,14.70
2014,06,01,08,22,14.70
2014,06,01,08,23,14.80
2014,06,01,08,24,14.80
2014,06,01,08,25,14.90
2014,06,01,08,26,15.00
2014,06,01,08,27,15.10
2014,06,01,08,28,15.10
2014,06,01,08,29,15.20
2014,06,01,08,30,15.20
2014,06,01,08,31,15.30
2014,06,01,08,32,15.30
2014,06,01,08,33,15.30
2014,06,01,08,34,15.30
2014,06,01,08,35,15.30
2014,06,01,08,36,15.30
2014,06,01,08,37,15.30
2014,06,01,08,38,15.30
2014,06,01,08,39,15.40
2014,06,01,08,40,15.40
2014,06,01,08,41,15.50
2014,06,01,08,42,15.50
2014,06,01,08,43,15.50
2014,06,01,08,44,15.50
2014,06,01,08,45,15.50
2014,06,01,08,46,15.60
2014,06,01,08,47,15.60
2014,06,01,08,48,15.60
2014,06,01,08,49,15.60
2014,06,01,08,50,15.60
2014,06,01,08,51,15.60
2014,06,01,08,52,15.60
2014,06,01,08,53,15.60
2014,06,01,08,54,15.60
2014,06,01,08,55,15.60
2014,06,01,08,56,15.60
2014,06,01,08,57,15.60
2014,06,01,08,58,15.60
2014,06,01,08,59,15.60
2014,06,01,09,00,15.60
2014,06,01,09,01,15.70
2014,06,01,09,02,15.70
2014,06,01,09,03,15.70
2014,06,01,09,04,15.80
2014,06,01,09,05,15.80
2014,06,01,09,06,15.80
2014,06,01,09,07,15.80
2014,06,01,09,08,15.90
2014,06,01,09,09,15.90
2014,06,01,09,10,15.90
2014,06,01,09,11,16.10
2014,06,01,09,12,16.10
2014,06,01,09,13,16.10
2014,06,01,09,14,16.10
2014,06,01,09,15,16.10
2014,06,01,09,16,16.10
2014,06,01,09,17,16.20
2014,06,01,09,18,16.20
2014,06,01,09,19,16.30
2014,06,01,09,20,16.40
2014,06,01,09,21,16.40
2014,06,01,09,22,16.40
2014,06,01,09,23,16.60
2014,06,01,09,24,16.70
2014,06,01,09,25,16.70
2014,06,01,09,26,16.80
2014,06,01,09,27,16.90
2014,06,01,09,28,16.90
2014,06,01,09,29,17.00
2014,06,01,09,30,17.10
2014,06,01,09,31,17.10
2014,06,01,09,32,17.10
2014,06,01,09,33,17.20
2014,06,01,09,34,17.30
2014,06,01,09,35,17.30
2014,06,01,09,36,17.30
2014,06,01,09,37,17.30
2014,06,01,09,38,17.30
2014,06,01,09,39,17.30
2014,06,01,09,40,17.30
2014,06,01,09,41,17.40
2014,06,01,09,42,17.40
2014,06,01,09,43,17.50
2014,06,01,09,44,17.50
2014,06,01,09,45,17.60
2014,06,01,09,46,17.70
2014,06,01,09,47,17.70
2014,06,01,09,48,17.70
2014,06,01,09,49,17.70
2014,06,01,09,50,17.70
2014,06,01,09,51,17.70
2014,06,01,09,52,17.60
2014,06,01,09,53,17.60
2014,06,01,09,54,17.70
2014,06,01,09,55,17.70
2014,06,01,09,56,17.70
2014,06,01,09,57,17.70
2014,06,01,09,58,17.80
2014,06,01,09,59,17.90
2014,06,01,10,00,17.90
2014,06,01,10,01,17.90
2014,06,01,10,02,17.90
2014,06,01,10,03,17.90
2014,06,01,10,04,17.90
2014,06,01,10,05,17.90
2014,06,01,10,06,17.90
2014,06,01,10,07,17.90
2014,06,01,10,08,18.10
2014,06,01,10,09,18.10
2014,06,01,10,10,18.10
2014,06,01,10,11,18.10
2014,06,01,10,12,18.20
2014,06,01,10,13,18.20
2014,06,01,10,14,18.20
2014,06,01,10,15,18.40
2014,06,01,10,16,18.40
2014,06,01,10,17,18.50
2014,06,01,10,18,18.50
2014,06,01,10,19,18.50
2014,06,01,10,20,18.40
2014,06,01,10,21,18.40
2014,06,01,10,22,18.50
2014,06,01,10,23,18.60
2014,06,01,10,24,18.60
2014,06,01,10,25,18.60
2014,06,01,10,26,18.60
2014,06,01,10,27,18.70
2014,06,01,10,28,18.70
2014,06,01,10,29,18.70
2014,06,01,10,30,18.60
2014,06,01,10,31,18.60
2014,06,01,10,32,18.60
2014,06,01,10,33,18.50
2014,06,01,10,34,18.60
2014,06,01,10,35,18.60
2014,06,01,10,36,18.60
2014,06,01,10,37,18.60
2014,06,01,10,38,18.50
2014,06,01,10,39,18.50
2014,06,01,10,40,18.60
2014,06,01,10,41,18.60
2014,06,01,10,42,18.70
2014,06,01,10,43,18.80
2014,06,01,10,44,18.90
2014,06,01,10,45,18.90
2014,06,01,10,46,19.10
2014,06,01,10,47,19.10
2014,06,01,10,48,19.30
2014,06,01,10,49,19.40
2014,06,01,10,50,19.50
2014,06,01,10,51,19.60
2014,06,01,10,52,19.70
2014,06,01,10,53,19.80
2014,06,01,10,54,19.80
2014,06,01,10,55,19.80
2014,06,01,10,56,19.80
2014,06,01,10,57,19.80
2014,06,01,10,58,19.80
2014,06,01,10,59,19.80
2014,06,01,11,00,19.80
2014,06,01,11,01,19.80
2014,06,01,11,02,19.90
2014,06,01,11,03,19.90
2014,06,01,11,04,19.90
2014,06,01,11,05,19.90
2014,06,01,11,06,20.10
2014,06,01,11,07,20.20
2014,06,01,11,08,20.20
2014,06,01,11,09,20.30
2014,06,01,11,10,20.30
2014,06,01,11,11,20.30
2014,06,01,11,12,20.30
2014,06,01,11,13,20.30
2014,06,01,11,14,20.20
2014,06,01,11,15,20.20
2014,06,01,11,16,20.30
2014,06,01,11,17,20.30
2014,06,01,11,18,20.40
2014,06,01,11,19,20.50
2014,06,01,11,20,20.50
2014,06,01,11,21,20.50
2014,06,01,11,22,20.60
2014,06,01,11,23,20.60
2014,06,01,11,24,20.60
2014,06,01,11,25,20.70
2014,06,01,11,26,20.70
2014,06,01,11,27,20.70
2014,06,01,11,28,20.70
2014,06,01,11,29,20.70
2014,06,01,11,30,20.70
2014,06,01,11,31,20.80
2014,06,01,11,32,20.90
2014,06,01,11,33,21.00
2014,06,01,11,34,21.10
2014,06,01,11,35,21.20
2014,06,01,11,36,21.30
2014,06,01,11,37,21.40
2014,06,01,11,38,21.60
2014,06,01,11,39,21.60
2014,06,01,11,40,21.60
2014,06,01,11,41,21.70
2014,06,01,11,42,21.70
2014,06,01,11,43,21.70
2014,06,01,11,44,21.70
2014,06,01,11,45,21.60
2014,06,01,11,46,21.60
2014,06,01,11,47,21.60
2014,06,01,11,48,21.60
2014,06,01,11,49,21.40
2014,06,01,11,50,21.40
2014,06,01,11,51,21.40
2014,06,01,11,52,21.60
2014,06,01,11,53,21.60
2014,06,01,11,54,21.60
2014,06,01,11,55,21.70
2014,06,01,11,56,21.80
2014,06,01,11,57,21.90
2014,06,01,11,58,21.90
2014,06,01,11,59,22.00
2014,06,01,12,00,22.00
2014,06,01,12,01,22.10
2014,06,01,12,02,22.10
2014,06,01,12,03,22.10
2014,06,01,12,04,22.10
2014,06,01,12,05,22.20
2014,06,01,12,06,22.40
2014,06,01,12,07,22.50
2014,06,01,12,08,22.70
2014,06,01,12,09,22.80
2014,06,01,12,10,22.90
2014,06,01,12,11,22.90
2014,06,01,12,12,22.90
2014,06,01,12,13,22.90
2014,06,01,12,14,23.10
2014,06,01,12,15,23.10
2014,06,01,12,16,23.20
2014,06,01,12,17,23.30
2014,06,01,12,18,23.30
2014,06,01,12,19,23.30
2014,06,01,12,20,23.40
2014,06,01,12,21,23.40
2014,06,01,12,22,23.40
2014,06,01,12,23,23.60
2014,06,01,12,24,23.70
2014,06,01,12,25,23.70
2014,06,01,12,26,23.80
2014,06,01,12,27,23.90
2014,06,01,12,28,24.10
2014,06,01,12,29,24.20
2014,06,01,12,30,24.30
2014,06,01,12,31,24.30
2014,06,01,12,32,24.30
2014,06,01,12,33,24.30
2014,06,01,12,34,24.30
2014,06,01,12,35,24.30
2014,06,01,12,36,24.30
2014,06,01,12,37,24.30
2014,06,01,12,38,24.10
2014,06,01,12,39,23.90
2014,06,01,12,40,23.80
2014,06,01,12,41,23.80
2014,06,01,12,42,23.70
2014,06,01,12,43,23.70
2014,06,01,12,44,23.60
2014,06,01,12,45,23.60
2014,06,01,12,46,23.60
2014,06,01,12,47,23.60
2014,06,01,12,48,23.70
2014,06,01,12,49,23.70
2014,06,01,12,50,23.70
2014,06,01,12,51,23.80
2014,06,01,12,52,23.90
2014,06,01,12,53,24.10
2014,06,01,12,54,24.10
2014,06,01,12,55,24.10
2014,06,01,12,56,24.20
2014,06,01,12,57,24.30
2014,06,01,12,58,24.40
2014,06,01,12,59,24.40
2014,06,01,13,00,24.50
2014,06,01,13,01,24.60
2014,06,01,13,02,24.70
2014,06,01,13,03,24.80
2014,06,01,13,04,25.00
2014,06,01,13,05,25.10
2014,06,01,13,06,25.20
2014,06,01,13,07,25.20
2014,06,01,13,08,25.30
2014,06,01,13,09,25.30
2014,06,01,13,10,25.40
2014,06,01,13,11,25.50
2014,06,01,13,12,25.50
2014,06,01,13,13,25.50
2014,06,01,13,14,25.60
2014,06,01,13,16,25.70
2014,06,01,13,17,25.70
2014,06,01,13,18,25.80
2014,06,01,13,19,25.90
2014,06,01,13,20,26.00
2014,06,01,13,21,26.00
2014,06,01,13,22,26.00
2014,06,01,13,23,26.00
2014,06,01,13,24,26.10
2014,06,01,13,25,26.20
2014,06,01,13,26,26.30
2014,06,01,13,27,26.40
2014,06,01,13,28,26.40
2014,06,01,13,29,26.40
2014,06,01,13,30,26.40
2014,06,01,13,31,26.30
2014,06,01,13,32,26.30
2014,06,01,13,33,26.20
2014,06,01,13,34,26.20
2014,06,01,13,35,26.30
2014,06,01,13,36,26.30
2014,06,01,13,37,26.30
2014,06,01,13,38,26.30
2014,06,01,13,39,26.20
2014,06,01,13,40,26.10
2014,06,01,13,41,25.70
2014,06,01,13,42,25.30
2014,06,01,13,43,25.10
2014,06,01,13,44,24.80
2014,06,01,13,45,24.50
2014,06,01,13,46,24.40
2014,06,01,13,47,24.40
2014,06,01,13,48,24.40
2014,06,01,13,49,24.40
2014,06,01,13,50,24.40
2014,06,01,13,51,24.40
2014,06,01,13,52,24.50
2014,06,01,13,53,24.40
2014,06,01,13,54,24.40
2014,06,01,13,55,24.40
2014,06,01,13,56,24.40
2014,06,01,13,57,24.30
2014,06,01,13,58,24.10
2014,06,01,13,59,24.10
2014,06,01,14,00,24.10
2014,06,01,14,01,24.10
2014,06,01,14,02,24.10
2014,06,01,14,03,24.10
2014,06,01,14,04,24.20
2014,06,01,14,05,24.30
2014,06,01,14,06,24.40
2014,06,01,14,07,24.60
2014,06,01,14,08,24.70
2014,06,01,14,09,24.80
2014,06,01,14,10,24.90
2014,06,01,14,11,24.80
2014,06,01,14,12,24.70
2014,06,01,14,13,24.60
2014,06,01,14,14,24.40
2014,06,01,14,15,24.30
2014,06,01,14,16,24.30
2014,06,01,14,17,24.40
2014,06,01,14,18,24.50
2014,06,01,14,19,24.50
2014,06,01,14,20,24.50
2014,06,01,14,21,24.50
2014,06,01,14,22,24.50
2014,06,01,14,23,24.50
2014,06,01,14,24,24.60
2014,06,01,14,25,24.50
2014,06,01,14,26,24.50
2014,06,01,14,27,24.40
2014,06,01,14,28,24.40
2014,06,01,14,29,24.40
2014,06,01,14,30,24.40
2014,06,01,14,31,24.30
2014,06,01,14,32,24.20
2014,06,01,14,33,24.10
2014,06,01,14,34,24.10
2014,06,01,14,35,24.10
2014,06,01,14,36,24.10
2014,06,01,14,37,24.10
2014,06,01,14,38,24.10
2014,06,01,14,39,24.10
2014,06,01,14,40,24.20
2014,06,01,14,41,24.30
2014,06,01,14,42,24.20
2014,06,01,14,43,24.10
2014,06,01,14,44,24.10
2014,06,01,14,45,24.10
2014,06,01,14,46,24.10
2014,06,01,14,47,24.10
2014,06,01,14,48,23.90
2014,06,01,14,49,23.90
2014,06,01,14,50,23.90
2014,06,01,14,51,23.80
2014,06,01,14,52,23.80
2014,06,01,14,53,23.70
2014,06,01,14,54,23.70
2014,06,01,14,55,23.70
2014,06,01,14,56,23.70
2014,06,01,14,57,23.70
2014,06,01,14,58,23.70
2014,06,01,14,59,23.70
2014,06,01,15,00,23.70
2014,06,01,15,01,23.70
2014,06,01,15,02,23.80
2014,06,01,15,03,23.80
2014,06,01,15,04,23.80
2014,06,01,15,05,23.80
2014,06,01,15,06,23.80
2014,06,01,15,07,23.80
2014,06,01,15,08,23.80
2014,06,01,15,09,23.80
2014,06,01,15,10,23.80
2014,06,01,15,11,23.90
2014,06,01,15,12,23.80
2014,06,01,15,13,23.70
2014,06,01,15,14,23.70
2014,06,01,15,15,23.70
2014,06,01,15,16,23.70
2014,06,01,15,17,23.70
2014,06,01,15,18,23.70
2014,06,01,15,19,23.80
2014,06,01,15,20,23.90
2014,06,01,15,21,23.90
2014,06,01,15,22,23.90
2014,06,01,15,23,23.90
2014,06,01,15,24,23.90
2014,06,01,15,25,23.90
2014,06,01,15,26,23.90
2014,06,01,15,27,23.90
2014,06,01,15,28,23.90
2014,06,01,15,29,23.90
2014,06,01,15,30,23.90
2014,06,01,15,31,23.80
2014,06,01,15,32,23.90
2014,06,01,15,33,23.90
2014,06,01,15,34,23.90
2014,06,01,15,35,23.90
2014,06,01,15,36,23.90
2014,06,01,15,37,24.10
2014,06,01,15,38,24.10
2014,06,01,15,39,24.10
2014,06,01,15,40,23.90
2014,06,01,15,41,23.90
2014,06,01,15,42,23.90
2014,06,01,15,43,23.90
2014,06,01,15,44,23.90
2014,06,01,15,45,23.90
2014,06,01,15,46,23.90
2014,06,01,15,47,23.90
2014,06,01,15,48,23.90
2014,06,01,15,49,23.90
2014,06,01,15,50,24.10
2014,06,01,15,51,24.10
2014,06,01,15,52,24.10
2014,06,01,15,53,23.90
2014,06,01,15,54,23.90
2014,06,01,15,55,24.10
2014,06,01,15,56,24.10
2014,06,01,15,57,24.10
2014,06,01,15,58,24.10
2014,06,01,15,59,24.10
2014,06,01,16,00,24.10
2014,06,01,16,01,24.10
2014,06,01,16,02,24.10
2014,06,01,16,03,24.10
2014,06,01,16,04,24.10
2014,06,01,16,05,24.10
2014,06,01,16,06,23.90
2014,06,01,16,07,23.90
2014,06,01,16,08,23.90
2014,06,01,16,09,23.90
2014,06,01,16,10,23.90
2014,06,01,16,11,23.90
2014,06,01,16,12,23.90
2014,06,01,16,13,23.90
2014,06,01,16,14,23.90
2014,06,01,16,15,24.10
2014,06,01,16,16,24.10
2014,06,01,16,17,24.10
2014,06,01,16,18,24.10
2014,06,01,16,19,24.10
2014,06,01,16,20,24.10
2014,06,01,16,21,24.10
2014,06,01,16,22,23.90
2014,06,01,16,23,23.90
2014,06,01,16,24,23.90
2014,06,01,16,25,23.90
2014,06,01,16,26,23.90
2014,06,01,16,27,23.90
2014,06,01,16,28,23.80
2014,06,01,16,29,23.80
2014,06,01,16,30,23.80
2014,06,01,16,31,23.80
2014,06,01,16,32,23.80
2014,06,01,16,33,23.80
2014,06,01,16,34,23.80
2014,06,01,16,35,23.80
2014,06,01,16,36,23.80
2014,06,01,16,37,23.90
2014,06,01,16,38,23.90
2014,06,01,16,39,23.80
2014,06,01,16,40,23.80
2014,06,01,16,41,23.90
2014,06,01,16,42,23.90
2014,06,01,16,43,24.10
2014,06,01,16,44,23.90
2014,06,01,16,45,23.80
2014,06,01,16,46,23.80
2014,06,01,16,47,23.80
2014,06,01,16,48,23.80
2014,06,01,16,49,23.80
2014,06,01,16,50,23.80
2014,06,01,16,51,23.70
2014,06,01,16,52,23.70
2014,06,01,16,53,23.70
2014,06,01,16,54,23.70
2014,06,01,16,55,23.70
2014,06,01,16,56,23.70
2014,06,01,16,57,23.70
2014,06,01,16,58,23.70
2014,06,01,16,59,23.70
2014,06,01,17,00,23.70
2014,06,01,17,01,23.70
2014,06,01,17,02,23.70
2014,06,01,17,03,23.70
2014,06,01,17,04,23.70
2014,06,01,17,05,23.70
2014,06,01,17,06,23.70
2014,06,01,17,07,23.70
2014,06,01,17,08,23.70
2014,06,01,17,09,23.70
2014,06,01,17,10,23.70
2014,06,01,17,11,23.70
2014,06,01,17,12,23.80
2014,06,01,17,13,23.70
2014,06,01,17,14,23.80
2014,06,01,17,15,23.80
2014,06,01,17,16,23.70
2014,06,01,17,17,23.70
2014,06,01,17,18,23.80
2014,06,01,17,19,23.80
2014,06,01,17,20,23.80